Tracking 26442 objects as of 7-Dec-2022
HD Live streaming from Space Station
objects crossing your sky now

NOAA 16 DEB

Track NOAA 16 DEB now!
10-day predictions


NORAD ID: 41091
Int'l Code: 2000-055BA
Perigee: 824.9 km
Apogee: 907.8 km
Inclination: 99.0 °
Period: 102.1 minutes
Semi major axis: 7237 km
RCS: Unknown
Launch date: September 21, 2000
Source: United States (US)
Launch site: AIR FORCE WESTERN TEST RANGE (AFWTR)

Note: This is SATELLITE DEBRIS
aabbcc
Your satellite tracking list
Your tracking list is empty




NASA's NSSDC Master Catalog

Two Line Element Set (TLE):
1 41091U 00055BA  22340.67793885  .00004026  00000-0  22697-2 0  9999
2 41091  98.9762  66.9223 0057288 270.0830  89.3776 14.10057513360282
Source of the keplerian elements: AFSPC